Flag for U.S.A. Weather past 2 weeks in New Orleans, Louisiana, U.S.A.

Now
81 °F

Sunny.


Feels Like: 83 °F
Forecast: 79 / 94 °F
Wind: 13 mph from East

Location: Lakefront Airport

Current Time: Aug 1, 2015 at 9:34:21 AM

Latest Report: Aug 1, 2015 at 8:53 AM


Visibility: 10 mi

Pressure: 29.91 "Hg

Humidity: 60%

Dew point: 66 °F

Location of New OrleansLocation

Historic Weather in New Orleans — Graph

°F

New Orleans temperature yesterday

Maximum temperature yesterday: 93 °F (at 3:53 PM)
Minimum temperature yesterday: 81 °F (at 2:53 AM)
Average temperature yesterday: 86 °F

Past Weeks' High & Low Weather Summary

 TemperatureHumidityPressure
High98 °F (Jul 27, 2:53 PM)93% (Jul 29, 6:53 PM)30.06 "Hg (Jul 29, 6:53 PM)
Low77 °F (Jul 29, 8:53 PM)34% (Jul 27, 2:53 PM)29.84 "Hg (Jul 25, 4:53 PM)
Average89 °F64%29.95 "Hg
* Reported Jul 17 7:53 AM — Aug 1 7:53 AM, New Orleans, Weather by CustomWeather, © 2015

Note: Actual official high and low records may vary slightly from our data, if they occured in-between our weather recording intervals... More about our weather records

Advertising

New Orleans weather history for previous 24 hours

 ConditionsComfort  
Time TempWeatherWind HumidityBarometerVisibility
7:53 AM
Sat, Aug 1
80 °FSunny.18 mph64%29.89 "Hg10 mi
6:53 AM80 °FClear.22 mph64%29.87 "Hg10 mi
5:53 AM81 °FClear.21 mph62%29.85 "Hg10 mi
4:53 AM82 °FClear.18 mph63%29.86 "Hg10 mi
3:53 AM82 °FClear.17 mph60%29.88 "Hg10 mi
2:53 AM83 °FClear.13 mph57%29.90 "Hg10 mi
1:53 AM84 °FClear.16 mph59%29.89 "Hg10 mi
12:53 AM86 °FClear.17 mph53%29.91 "Hg10 mi
11:53 PM
Fri, Jul 31
86 °FClear.18 mph53%29.91 "Hg10 mi
10:53 PM87 °FClear.15 mph51%29.91 "Hg10 mi
9:53 PM88 °FClear.16 mph52%29.90 "Hg10 mi
8:53 PM88 °FSunny.14 mph55%29.88 "Hg10 mi
7:53 PM90 °FSunny.16 mph52%29.87 "Hg10 mi
6:53 PM91 °FSunny.15 mph60%29.85 "Hg10 mi
5:53 PM92 °FSunny.13 mph58%29.85 "Hg10 mi
4:53 PM93 °FSunny.12 mph56%29.87 "Hg10 mi
3:53 PM93 °FSunny.13 mph54%29.88 "Hg10 mi
2:53 PM91 °FSunny.10 mph57%29.90 "Hg10 mi
1:53 PM89 °FSunny.8 mph61%29.91 "Hg10 mi
12:53 PM88 °FPassing clouds.7 mph61%29.93 "Hg10 mi
11:53 AM87 °FPassing clouds.8 mph61%29.94 "Hg10 mi
10:53 AM86 °FPassing clouds.6 mph61%29.94 "Hg10 mi
9:53 AM83 °FPassing clouds.12 mph65%29.93 "Hg10 mi
Weather by CustomWeather, © 2015

See weather overviewHow to use our weather pages